Regional Weather Roundup
Issued by NWS

Home | Current Version | Previous Version | Graphics & Text | Print | Product List | Glossary On
Versions: 1 2 3 4 5 6 7 8 9 10 11 12 13 14 15 16 17 18 19 20 21 22 23 24 25 26 27 28 29 30 31 32 33 34 35 36 37 38 39 40 41 42 43 44 45 46 47 48 49 50
000
ASUS43 KFSD 040102
RWRSD

WEATHER ROUNDUP FOR SOUTH DAKOTA
NATIONAL WEATHER SERVICE SIOUX FALLS SD
800 PM CDT THU SEP 03 2015

NOTE: "FAIR" INDICATES FEW OR NO CLOUDS BELOW 12,000 FEET WITH NO
SIGNIFICANT WEATHER AND/OR OBSTRUCTIONS TO VISIBILITY.


SDZ001>005-009-010-012>017-040200-
NORTHWEST AND NORTH CENTRAL SOUTH DAKOTA

CITY           SKY/WX    TMP DP  RH WIND       PRES   REMARKS
BUFFALO          N/A     80  53  39 E6        29.68S
MOBRIDGE       CLOUDY    82  65  56 SE7       29.68R
$$

SDZ012>016-024>037-041>051-057-063-072>074-040200-
SOUTHWEST AND SOUTH CENTRAL SOUTH DAKOTA

CITY           SKY/WX    TMP DP  RH WIND       PRES   REMARKS
RAPID CTY ARPT PTCLDY    80  58  46 N9        29.74R
PIERRE         CLOUDY    82  65  56 SE9       29.69R
CUSTER         PTCLDY    79  39  23 S6        29.94R
ELLSWORTH AFB  CLOUDY    88  52  29 N13       29.74R
PHILIP         CLOUDY    89  49  25 S13       29.69R
PINE RIDGE     CLOUDY    84  47  27 E13G24    29.82R
WINNER         FAIR      84  67  56 SE9       29.73R
$$

SDZ004>011-016>023-039-040-040200-
NORTHEAST SOUTH DAKOTA

CITY           SKY/WX    TMP DP  RH WIND       PRES   REMARKS
ABERDEEN       CLEAR     79  71  76 SE7       29.74R
WATERTOWN      CLEAR     81  71  71 SE7       29.79R
BROOKINGS      CLEAR     81  70  69 SE10      29.81S
$$

SDZ017-020-022-023-036>040-048>070-040200-
SOUTHEAST SOUTH DAKOTA

CITY           SKY/WX    TMP DP  RH WIND       PRES   REMARKS
SIOUX FALLS    PTCLDY    82  71  69 S10       29.79R
HURON          PTCLDY    83  71  67 SE12      29.74R
CHAMBERLAIN    CLOUDY    80  72  76 SE8       29.72S
MITCHELL       PTCLDY    80  74  81 SE7       29.74R
YANKTON        PTCLDY    81  72  74 E7        29.74S
$$

ABBREVIATIONS USED IN REMARKS
   TC - TEMPERATURE IN CELSIUS
  WCI - WIND CHILL INDEX
   HX - HEAT INDEX
  VSB - VISIBILITY




USA.gov is the U.S. government's official web portal to all federal, state and local government web resources and services.